Flag for Norway Weather past 2 weeks in Hammerfest, Norway

Now
36 °F

Scattered showers. Broken clouds.


Feels Like: 33 °F
Forecast: 35 / 45 °F
Wind: 3 mph from Northwest

Location: Hammerfest

Current Time: May 25, 2015 at 10:12:07 PM

Latest Report: May 25, 2015 at 9:50 PM


Visibility: N/A

Pressure: 29.89 "Hg

Humidity: 87%

Dew point: 32 °F

Location of HammerfestLocation

Historic Weather in Hammerfest — Graph

°F

Hammerfest temperature yesterday

Maximum temperature yesterday: 41 °F (at 12:50 AM)
Minimum temperature yesterday: 36 °F (at 5:50 AM)
Average temperature yesterday: 37 °F

Past Weeks' High & Low Weather Summary

 TemperatureHumidityPressure
High52 °F (May 22, 2:50 PM)100% (May 13, 7:50 AM)30.04 "Hg (May 13, 7:50 AM)
Low32 °F (May 15, 4:50 AM)41% (May 22, 3:50 PM)29.24 "Hg (May 23, 9:50 PM)
Average39 °F79%29.70 "Hg
* Reported May 10 8:50 PM — May 25 8:50 PM, Hammerfest, Weather by CustomWeather, © 2015

Note: Actual official high and low records may vary slightly from our data, if they occured in-between our weather recording intervals... More about our weather records

Advertising

Hammerfest weather history for previous 24 hours

 ConditionsComfort  
Time TempWeatherWind HumidityBarometerVisibility
8:50 PM
Mon, May 25
37 °FPartly sunny.2 mph81%29.89 "HgN/A
7:50 PM37 °FPartly sunny.3 mph81%29.89 "HgN/A
6:50 PM37 °FPartly sunny.6 mph81%29.86 "HgN/A
5:50 PM37 °FPartly sunny.2 mph81%29.86 "HgN/A
4:50 PM36 °FBroken clouds.5 mph87%29.86 "HgN/A
3:50 PM39 °FBroken clouds.8 mph70%29.86 "HgN/A
2:50 PM39 °FScattered showers. Broken clouds.8 mph70%29.83 "HgN/A
1:50 PM37 °FScattered showers. Broken clouds.8 mph81%29.83 "HgN/A
12:50 PM37 °FScattered showers. Partly sunny.9 mph87%29.80 "HgN/A
11:50 AM37 °FScattered showers. Partly sunny.3 mph87%29.80 "HgN/A
10:50 AM36 °FSnow flurries. Partly sunny.6 mph87%29.77 "HgN/A
9:50 AM37 °FScattered showers. Partly sunny.10 mph81%29.77 "HgN/A
8:50 AM37 °FScattered showers. Partly sunny.10 mph81%29.74 "HgN/A
7:50 AM37 °FScattered showers. Broken clouds.3 mph75%29.71 "HgN/A
6:50 AM36 °FSprinkles. Broken clouds.9 mph87%29.71 "HgN/A
5:50 AM36 °FBroken clouds.12 mph87%29.71 "HgN/A
4:50 AM36 °FBroken clouds.9 mph87%29.68 "HgN/A
3:50 AM37 °FDrizzle. Broken clouds.8 mph81%29.68 "HgN/A
2:50 AM36 °FLight rain. Broken clouds.13 mph93%29.65 "HgN/A
1:50 AM36 °FDrizzle. Broken clouds.10 mph93%29.65 "HgN/A
12:50 AM37 °FDrizzle. Broken clouds.8 mph87%29.65 "HgN/A
11:50 PM
Sun, May 24
36 °FLight rain. Broken clouds.8 mph93%29.62 "HgN/A
10:50 PM36 °FLight rain. Broken clouds.8 mph93%29.62 "HgN/A
Weather by CustomWeather, © 2015

See weather overviewHow to use our weather pages